Content
SEND FEEDBACK

Daily
Averages
Monthly
Summary
Mexico

LUIS DONALDO COLOSIO, PUEBLA


Home > North America > Mexico > Puebla
Elevation: 6778 feet     Latitude: 18 57N     Longitude: 098 16W

WEATHER
 
SELECT A DAY
Number of Records: 120,875;   Date Range: 1/1/95 - 7/23/14
 
SHARE

PRINT THIS DATA

[ ← Previous Day ]
WEATHER ALMANAC - APRIL 20, 2013
[ Next Day → ]
[ °C ]   °F
Weather ElementAverageHighLow
Temperature66 °F80 °F (3:40 pm)48.2 °F (5:54 am)
Dewpoint42.7 °F52 °F (9:50 am)35.6 °F (5:45 pm)
Humidity45.9 %90 % (6:50 am)18 % (3:40 pm)
Barometer30.14 in30.36 in (9:44 am)29.62 in (6:40 pm)
Wind Speed7.9 mph20.7 mph (6:41 pm)
Weather ElementAverage
Visibility5.3 mi
Wind DirectionESE (127.7 °)

Weather ElementTotal
Precipitation---
Heating Degree Days0.9 (Base 65)
Growing Degree Days14.1 (Base 50)
Averaged from 23 records on April 20, 2013
WEATHER CONDITIONS BREAKOUT
WIND DIRECTION BREAKOUT
WEATHER BY HOUR - APRIL 20, 2013
[ °C ]   °F
Local TimeTemperatureDewpointHumidityBarometerVisibilityWind DirectionWind SpeedGust SpeedPrecipitationEventsConditions
3:58 AM54.0 °F50.0 °F82 %29.83 in3.0 miEast (90°)2.2 mph
5:54 AM48.2 °F42.8 °F82 %30.30 in8.0 miCalmPartly Cloudy
6:45 AM48.2 °F42.8 °F82 %30.31 in6.0 miCalmScattered Clouds
6:50 AM53.0 °F51.0 °F90 %29.88 in3.0 miEast (90°)2.2 mph
7:46 AM50.0 °F44.6 °F82 %30.33 in5.0 miCalmScattered Clouds
8:46 AM53.6 °F46.4 °F77 %30.35 in5.0 miCalmOvercast
9:44 AM57.2 °F46.4 °F67 %30.36 in4.0 miSE (140°)3.5 mphOvercast
9:50 AM63.0 °F52.0 °F58 %29.97 in3.0 miEast (90°)2.2 mphHaze
10:49 AM64.4 °F48.2 °F56 %30.35 in4.0 miSE (140°)12.7 mphMostly Cloudy
11:42 AM69.8 °F46.4 °F43 %30.33 in5.0 miSSE (160°)11.5 mphPartly Cloudy
12:45 PM71.6 °F42.8 °F35 %30.31 in5.0 miSouth (180°)11.5 mphClear
12:50 PM74.0 °F47.0 °F27 %29.90 in9.0 miSouth (180°)2.2 mphHaze
1:46 PM71.6 °F41.0 °F33 %30.29 in6.0 miSouth (180°)15.0 mphClear
2:48 PM75.2 °F39.2 °F27 %30.26 in6.0 miSouth (170°)16.1 mphClear
3:40 PM80.0 °F44.0 °F18 %29.74 in3.0 miSSE (160°)4.5 mphHaze
3:44 PM77.0 °F39.2 °F26 %30.23 in6.0 miSouth (170°)18.4 mphClear
4:44 PM75.2 °F37.4 °F25 %30.20 in6.0 miSouth (170°)15.0 mphMostly Cloudy
5:45 PM75.2 °F35.6 °F24 %30.20 in7.0 miSouth (180°)17.3 mphMostly Cloudy
6:40 PM76.0 °F42.0 °F19 %29.62 in3.0 miSouth (180°)2.2 mphHaze
6:41 PM73.4 °F35.6 °F25 %30.21 in7.0 miSouth (180°)20.7 mphMostly Cloudy
7:52 PM69.8 °F35.6 °F28 %30.23 in7.0 miSouth (180°)10.4 mphMostly Cloudy
8:42 PM68.0 °F35.6 °F30 %30.26 in7.0 miSouth (170°)15.0 mphMostly Cloudy
9:58 PM70.0 °F36.0 °F19 %29.65 in3.0 miCalmScattered Clouds
Hourly data recorded from MMPB, located miles away from Luis Donaldo Colosio, Puebla







STORIES FROM OUR PARTNERS